Location: Sluknov
(51.0170°N, 14.4670°E)
Time: 12:01:21
(UTC+01:00)

ISS - Visible Passes

Search period start: 17 February 2026 00:00
Search period end: 27 February 2026 00:00
Orbit: 413 x 428 km, 51.6° (Epoch: 16 February)

Date Brightness Start Highest point End Pass type
(mag) Time Alt. Az. Time Alt. Az. Time Alt. Az.
17 Feb -2.9 05:39:34 20° SW 05:41:32 45° SSE 05:44:44 10° E visible
18 Feb -2.5 04:54:28 33° SSE 04:54:30 33° SSE 04:57:32 10° E visible
18 Feb -3.8 06:27:47 10° W 06:31:08 89° NNW 06:34:29 10° E visible
19 Feb -0.8 04:09:16 16° ESE 04:09:16 16° ESE 04:10:14 10° E visible
19 Feb -3.7 05:42:15 26° WSW 05:43:59 77° SSE 05:47:20 10° ENE visible
20 Feb -3.5 04:56:59 60° SE 04:56:59 60° SE 05:00:09 10° E visible
20 Feb -3.7 06:30:19 10° W 06:33:41 78° N 06:37:01 10° E visible
21 Feb -1.2 04:11:39 21° E 04:11:39 21° E 04:12:57 10° E visible
21 Feb -3.8 05:44:37 24° W 05:46:28 81° N 05:49:49 10° E visible
22 Feb -3.9 04:59:14 88° NW 04:59:15 89° NNW 05:02:36 10° E visible
23 Feb -1.5 04:13:49 25° E 04:13:49 25° E 04:15:23 10° ENE visible
23 Feb -3.8 05:46:47 21° W 05:48:55 80° N 05:52:15 10° E visible
24 Feb -3.9 05:01:21 69° NW 05:01:38 78° N 05:04:59 10° E visible
25 Feb -1.8 04:15:53 30° E 04:15:53 30° E 04:17:43 10° E visible
25 Feb -3.8 05:48:51 18° W 05:51:14 79° SSW 05:54:35 10° ESE visible
26 Feb -3.9 05:03:24 59° WNW 05:03:57 88° N 05:07:19 10° E visible
